| time (UTC) | temp C | wind direction | speed KPH | gust KPH | rain 1hr cm | rain 24hr cm | rain mn cm | humidity % | barometer mb |
| 20260508122013 | 9 | 252 | 0.0 | 0.0 | 0.00 | 0.00 | 0.00 | 71 | 1007.5 |
| 20260508120525 | 8 | 271 | 0.0 | 0.0 | 0.00 | 0.00 | 0.00 | 70 | 1007.5 |
| 20260508115054 | 7 | 286 | 0.0 | 0.0 | 0.00 | 0.00 | 0.00 | 73 | 1007.5 |
| 20260508113617 | 7 | 302 | 0.0 | 0.0 | 0.00 | 0.00 | 0.00 | 75 | 1007.5 |
| 20260508112137 | 6 | 302 | 0.0 | 0.0 | 0.00 | 0.00 | 0.00 | 74 | 1007.3 |
| 20260508103240 | 5 | 217 | 0.0 | 0.0 | 0.00 | 0.00 | 0.00 | 76 | 1007.0 |
| 20260508100137 | 3 | 217 | 0.0 | 0.0 | 0.00 | 0.00 | 0.00 | 81 | 1006.4 |
| 20260508094548 | 3 | 217 | 0.0 | 0.0 | 0.00 | 0.00 | 0.00 | 80 | 1006.3 |
| 20260508093124 | 3 | 217 | 0.0 | 0.0 | 0.00 | 0.00 | 0.00 | 80 | 1006.1 |
| 20260508091552 | 3 | 217 | 0.0 | 0.0 | 0.00 | 0.00 | 0.00 | 80 | 1006.1 |
| 20260508090008 | 3 | 217 | 0.0 | 0.0 | 0.00 | 0.00 | 0.00 | 79 | 1005.9 |
| 20260508084542 | 3 | 217 | 0.0 | 0.0 | 0.00 | 0.00 | 0.00 | 77 | 1005.9 |
| 20260508082959 | 3 | 217 | 0.0 | 0.0 | 0.00 | 0.00 | 0.00 | 77 | 1005.9 |
| 20260508081537 | 4 | 217 | 0.0 | 0.0 | 0.00 | 0.00 | 0.00 | 75 | 1005.9 |
| 20260508080039 | 4 | 217 | 0.0 | 0.0 | 0.00 | 0.00 | 0.00 | 75 | 1005.9 |
| 20260508074517 | 4 | 217 | 0.0 | 0.0 | 0.00 | 0.00 | 0.00 | 74 | 1005.6 |
| 20260508065712 | 5 | 217 | 0.0 | 0.0 | 0.00 | 0.03 | 0.00 | 70 | 1005.7 |
| 20260508064211 | 5 | 217 | 0.0 | 0.0 | 0.00 | 0.03 | 0.00 | 72 | 1005.6 |
| 20260508062734 | 5 | 217 | 0.0 | 0.0 | 0.00 | 0.03 | 0.00 | 72 | 1005.7 |
| 20260508061253 | 5 | 217 | 0.0 | 0.0 | 0.00 | 0.03 | 0.00 | 74 | 1005.8 |
| 20260508055715 | 5 | 217 | 0.0 | 0.0 | 0.00 | 0.10 | 0.00 | 72 | 1005.9 |
| 20260508054214 | 5 | 217 | 0.0 | 0.0 | 0.00 | 0.25 | 0.00 | 70 | 1006.0 |
| 20260508052703 | 6 | 217 | 0.0 | 0.0 | 0.00 | 0.33 | 0.00 | 71 | 1005.9 |
| 20260508051158 | 6 | 217 | 0.0 | 0.0 | 0.00 | 0.33 | 0.00 | 71 | 1005.9 |
| 20260508045730 | 7 | 238 | 0.0 | 0.0 | 0.00 | 0.33 | 0.00 | 69 | 1006.1 |
| 20260508044142 | 7 | 238 | 0.0 | 0.0 | 0.00 | 0.33 | 0.00 | 66 | 1006.2 |
| 20260508042638 | 7 | 288 | 0.0 | 0.0 | 0.00 | 0.33 | 0.00 | 62 | 1006.0 |
| 20260508041106 | 7 | 333 | 0.0 | 0.0 | 0.00 | 0.33 | 0.00 | 66 | 1006.2 |
| 20260508035602 | 7 | 340 | 0.0 | 0.0 | 0.00 | 0.33 | 0.33 | 65 | 1006.4 |
| 20260508034140 | 7 | 340 | 0.0 | 0.0 | 0.00 | 0.33 | 0.33 | 65 | 1006.4 |
| 20260508032630 | 7 | 188 | 0.0 | 0.0 | 0.00 | 0.33 | 0.33 | 64 | 1006.5 |
| 20260508031058 | 8 | 315 | 0.0 | 0.0 | 0.00 | 0.33 | 0.33 | 64 | 1006.4 |
| 20260508025556 | 8 | 310 | 0.0 | 0.0 | 0.00 | 0.38 | 0.33 | 60 | 1006.4 |
| 20260508024037 | 8 | 310 | 0.0 | 0.0 | 0.00 | 0.38 | 0.33 | 61 | 1006.2 |
| 20260508020839 | 9 | 310 | 0.0 | 0.0 | 0.00 | 0.43 | 0.33 | 60 | 1006.2 |
| 20260508015401 | 9 | 310 | 0.0 | 0.0 | 0.00 | 0.48 | 0.33 | 60 | 1006.3 |
| 20260508013912 | 10 | 246 | 0.0 | 0.0 | 0.00 | 0.51 | 0.33 | 60 | 1006.3 |
| 20260508012420 | 10 | 245 | 0.0 | 0.0 | 0.00 | 0.76 | 0.33 | 60 | 1006.3 |
| 20260508010837 | 10 | 288 | 0.0 | 0.0 | 0.00 | 0.91 | 0.33 | 58 | 1006.2 |
| 20260508003741 | 11 | 304 | 0.0 | 0.0 | 0.00 | 1.14 | 0.33 | 60 | 1005.9 |
| 20260508000642 | 11 | 270 | 0.0 | 0.0 | 0.00 | 1.37 | 0.33 | 76 | 1005.2 |
| 20260507235209 | 11 | 166 | 0.0 | 0.0 | 0.00 | 1.42 | 0.33 | 76 | 1005.1 |
| 20260507233654 | 12 | 166 | 0.0 | 0.0 | 0.00 | 1.50 | 0.33 | 76 | 1004.7 |
| 20260507230533 | 12 | 166 | 0.0 | 0.0 | 0.00 | 1.57 | 0.33 | 72 | 1004.0 |
| 20260507225043 | 12 | 166 | 0.0 | 0.0 | 0.00 | 1.60 | 0.33 | 73 | 1003.9 |
| 20260507223619 | 12 | 166 | 0.0 | 0.0 | 0.00 | 1.63 | 0.33 | 72 | 1003.8 |
| 20260507222154 | 12 | 153 | 0.0 | 0.0 | 0.00 | 1.65 | 0.33 | 72 | 1003.6 |
| 20260507220703 | 12 | 203 | 0.0 | 0.0 | 0.00 | 1.68 | 0.33 | 69 | 1003.8 |
| 20260507215143 | 13 | 203 | 0.0 | 0.0 | 0.00 | 1.75 | 0.33 | 69 | 1003.8 |
| 20260507213616 | 13 | 243 | 0.0 | 0.0 | 0.00 | 1.78 | 0.33 | 72 | 1003.8 |
| 20260507212132 | 13 | 194 | 0.0 | 0.0 | 0.00 | 1.80 | 0.33 | 69 | 1003.9 |
| 20260507210615 | 13 | 209 | 0.0 | 0.0 | 0.00 | 1.80 | 0.33 | 68 | 1004.0 |
| 20260507205039 | 13 | 194 | 0.0 | 0.0 | 0.00 | 1.80 | 0.33 | 67 | 1003.8 |
| 20260507203456 | 13 | 181 | 0.0 | 0.0 | 0.00 | 1.80 | 0.33 | 67 | 1003.6 |
| 20260507202020 | 14 | 190 | 0.0 | 9.7 | 0.00 | 1.80 | 0.33 | 66 | 1003.6 |
| 20260507200438 | 15 | 205 | 0.0 | 0.0 | 0.00 | 1.80 | 0.33 | 65 | 1003.7 |
| 20260507194918 | 16 | 192 | 0.0 | 14.5 | 0.00 | 1.80 | 0.33 | 60 | 1003.5 |
| 20260507193359 | 16 | 155 | 0.0 | 0.0 | 0.00 | 1.80 | 0.33 | 63 | 1003.6 |
| 20260507191843 | 17 | 194 | 0.0 | 6.4 | 0.00 | 1.80 | 0.33 | 61 | 1003.6 |
| 20260507190414 | 17 | 164 | 0.0 | 6.4 | 0.00 | 1.80 | 0.33 | 59 | 1003.6 |
| 20260507184902 | 17 | 167 | 0.0 | 6.4 | 0.00 | 1.80 | 0.33 | 59 | 1003.7 |
| 20260507183417 | 17 | 160 | 0.0 | 8.0 | 0.00 | 1.80 | 0.33 | 57 | 1003.7 |
| 20260507181933 | 18 | 184 | 0.0 | 1.6 | 0.00 | 1.80 | 0.33 | 58 | 1003.8 |
| 20260507180418 | 18 | 186 | 0.0 | 0.0 | 0.00 | 1.80 | 0.33 | 55 | 1003.9 |
| 20260507174854 | 17 | 183 | 0.0 | 6.4 | 0.00 | 1.80 | 0.33 | 58 | 1004.0 |
| 20260507173429 | 17 | 203 | 0.0 | 0.0 | 0.00 | 1.80 | 0.33 | 56 | 1003.9 |
| 20260507171853 | 17 | 0 | 0.0 | 0.0 | 0.00 | 1.80 | 0.33 | 61 | 1003.9 |
| 20260507163038 | 17 | 115 | 0.0 | 0.0 | 0.00 | 1.80 | 0.33 | 54 | 1004.3 |
| 20260507161615 | 17 | 211 | 0.0 | 0.0 | 0.00 | 1.80 | 0.33 | 54 | 1004.4 |
| 20260507154511 | 16 | 168 | 0.0 | 0.0 | 0.00 | 1.80 | 0.33 | 58 | 1004.7 |
| 20260507153010 | 16 | 296 | 0.0 | 0.0 | 0.00 | 1.80 | 0.33 | 63 | 1004.8 |
| 20260507151507 | 16 | 23 | 0.0 | 0.0 | 0.00 | 1.78 | 0.33 | 63 | 1004.8 |
| 20260507145924 | 15 | 285 | 0.0 | 0.0 | 0.00 | 1.78 | 0.33 | 69 | 1005.0 |
| 20260507144401 | 15 | 334 | 0.0 | 0.0 | 0.00 | 1.78 | 0.33 | 69 | 1005.3 |
| 20260507142902 | 15 | 222 | 0.0 | 0.0 | 0.00 | 1.78 | 0.33 | 70 | 1005.6 |
| 20260507141341 | 13 | 205 | 0.0 | 0.0 | 0.00 | 1.78 | 0.33 | 76 | 1005.6 |
| 20260507135842 | 13 | 121 | 0.0 | 0.0 | 0.00 | 1.78 | 0.33 | 76 | 1005.8 |
| 20260507132725 | 11 | 266 | 0.0 | 0.0 | 0.00 | 1.78 | 0.33 | 82 | 1006.3 |
| 20260507131136 | 11 | 267 | 0.0 | 0.0 | 0.00 | 1.78 | 0.33 | 85 | 1006.0 |
| 20260507125557 | 11 | 241 | 0.0 | 0.0 | 0.00 | 1.78 | 0.33 | 88 | 1006.1 |
| 20260507124026 | 10 | 217 | 0.0 | 0.0 | 0.00 | 1.78 | 0.33 | 90 | 1005.7 |